Tracking 30995 objects as of 6-Jul-2025
HD Live streaming from Space Station
objects crossing your sky now

DMSP 5D-2 F13 DEB

Track DMSP 5D-2 F13 DEB now!
10-day predictions


NORAD ID: 42265
Int'l Code: 1995-015GF
Perigee: 779.0 km
Apogee: 783.9 km
Inclination: 98.7 °
Period: 100.3 minutes
Semi major axis: 7152 km
RCS: Unknown
Launch date: March 24, 1995
Source: United States (US)
Launch site: AIR FORCE WESTERN TEST RANGE (AFWTR)

Note: This is SATELLITE DEBRIS
Your satellite tracking list
Your tracking list is empty




NASA's NSSDC Master Catalog

Two Line Element Set (TLE):
1 42265U 95015GF  25185.04496874  .00003503  00000-0  12400-2 0  9992
2 42265  98.7029 215.5660 0003418 356.2925   3.8234 14.35217134498607
Source of the keplerian elements: AFSPC